TimeEST,TemperatureF,Dew PointF,Humidity,Sea Level PressureIn,VisibilityMPH,Wind Direction,Wind SpeedMPH,Gust SpeedMPH,PrecipitationIn,Events,Conditions,WindDirDegrees,DateUTC
12:56 AM,44.1,43.0,96,30.25,10.0,NE,4.6,-,N/A,,Clear,40,2012-12-15 05:56:00
1:56 AM,44.1,42.1,93,30.24,10.0,NE,5.8,-,N/A,,Clear,50,2012-12-15 06:56:00
2:56 AM,44.1,43.0,96,30.23,10.0,NE,5.8,-,N/A,,Clear,50,2012-12-15 07:56:00
3:56 AM,44.1,42.1,93,30.23,10.0,NE,5.8,-,N/A,,Clear,50,2012-12-15 08:56:00
4:56 AM,44.1,43.0,96,30.24,10.0,Calm,Calm,-,N/A,,Clear,0,2012-12-15 09:56:00
5:56 AM,46.0,42.1,86,30.22,10.0,ENE,5.8,-,N/A,,Clear,60,2012-12-15 10:56:00
6:56 AM,46.9,42.1,83,30.22,10.0,ENE,5.8,-,N/A,,Clear,60,2012-12-15 11:56:00
7:56 AM,48.0,42.1,80,30.24,10.0,NE,4.6,-,N/A,,Clear,40,2012-12-15 12:56:00
9:56 AM,52.0,44.1,74,30.26,10.0,NE,6.9,-,N/A,,Clear,50,2012-12-15 14:56:00
10:56 AM,54.0,44.1,69,30.25,10.0,NNE,8.1,-,N/A,,Clear,30,2012-12-15 15:56:00
11:56 AM,57.9,45.0,62,30.22,10.0,NNE,8.1,-,N/A,,Clear,30,2012-12-15 16:56:00
12:56 PM,60.1,46.9,62,30.19,10.0,NE,8.1,-,N/A,,Clear,40,2012-12-15 17:56:00
1:56 PM,60.1,48.0,64,30.18,10.0,NNE,8.1,-,N/A,,Clear,30,2012-12-15 18:56:00
2:56 PM,59.0,46.9,64,30.17,10.0,NNE,8.1,-,N/A,,Scattered Clouds,30,2012-12-15 19:56:00
3:56 PM,57.9,48.0,70,30.17,10.0,NNE,6.9,-,N/A,,Overcast,20,2012-12-15 20:56:00
4:56 PM,54.0,46.9,77,30.17,10.0,NE,4.6,-,N/A,,Partly Cloudy,40,2012-12-15 21:56:00
5:56 PM,52.0,46.0,80,30.17,10.0,NE,5.8,-,N/A,,Partly Cloudy,50,2012-12-15 22:56:00
6:56 PM,51.1,46.0,83,30.17,10.0,Calm,Calm,-,N/A,,Partly Cloudy,0,2012-12-15 23:56:00
7:56 PM,52.0,46.9,83,30.16,10.0,NE,3.5,-,N/A,,Overcast,50,2012-12-16 00:56:00
8:56 PM,51.1,46.9,86,30.14,10.0,East,3.5,-,N/A,,Mostly Cloudy,80,2012-12-16 01:56:00
9:56 PM,53.1,48.9,86,30.13,10.0,Calm,Calm,-,N/A,,Overcast,0,2012-12-16 02:56:00
10:56 PM,54.0,50.0,86,30.12,10.0,Calm,Calm,-,N/A,,Overcast,0,2012-12-16 03:56:00
11:56 PM,55.9,54.0,93,30.10,10.0,Calm,Calm,-,0.00,,Overcast,0,2012-12-16 04:56:00